This is the latest recevied weather packets stored in our database for station/object WP3OF-3. If no packets are shown the sender has not sent any weather packets the latest 10 day(s).
| Time | Temp. | Humidity | Pressure | Rain* | Wind** | Luminosity | Snow |
|---|---|---|---|---|---|---|---|
| 1777505723 | 23.33° C | 95% | 1016.1 hPa | 1.27 mm | - | - | - |
| 1777505421 | 23.33° C | 95% | 1015.9 hPa | 0 mm | - | - | - |
| 1777505117 | 23.33° C | 95% | 1016.1 hPa | 0 mm | - | - | - |
| 1777504814 | 23.33° C | 95% | 1016.1 hPa | 0 mm | - | - | - |
| 1777504511 | 23.33° C | 95% | 1016 hPa | 0 mm | - | - | - |
| 1777504206 | 23.33° C | 95% | 1016.1 hPa | 0 mm | - | - | - |
| 1777503903 | 23.33° C | 95% | 1015.9 hPa | 0 mm | - | - | - |
| 1777503598 | 23.33° C | 95% | 1015.8 hPa | 0 mm | - | - | - |
| 1777503296 | 23.89° C | 95% | 1016 hPa | 0 mm | - | - | - |
| 1777502992 | 23.89° C | 95% | 1015.7 hPa | 0 mm | - | - | - |
| 1777502690 | 23.33° C | 95% | 1015.8 hPa | 0 mm | - | - | - |
| 1777502386 | 23.33° C | 95% | 1015.7 hPa | 0 mm | - | - | - |
| 1777502083 | 23.33° C | 95% | 1015.7 hPa | 0 mm | - | - | - |
| 1777501780 | 23.89° C | 95% | 1015.6 hPa | 0 mm | - | - | - |
| 1777501478 | 23.89° C | 95% | 1015.7 hPa | 0 mm | - | - | - |
| 1777501174 | 23.89° C | 95% | 1015.5 hPa | 0 mm | - | - | - |
| 1777500872 | 23.89° C | 95% | 1015.6 hPa | 1.78 mm | - | - | - |
| 1777500569 | 23.33° C | 95% | 1015.5 hPa | 1.78 mm | - | - | - |
| 1777500266 | 23.33° C | 95% | 1015.6 hPa | 0 mm | - | - | - |
| 1777499962 | 23.89° C | 94% | 1015.5 hPa | 1.27 mm | - | - | - |
| 1777499659 | 23.89° C | 95% | 1015.7 hPa | 4.32 mm | - | - | - |
| 1777499356 | 23.89° C | 94% | 1015.9 hPa | 12.7 mm | - | - | - |
| 1777499055 | 23.89° C | 94% | 1015.9 hPa | 29.46 mm | - | - | - |
| 1777498750 | 23.89° C | 94% | 1015.8 hPa | 58.17 mm | - | - | - |
| 1777498447 | 24.44° C | 94% | 1015.8 hPa | 71.37 mm | - | - | - |
* Rain latest hour (hover to see other rain measurements)
** Current wind speed in m/s (hover to see current wind gust speed)